Location: Riverview Farm Park
(37.0930°N, 76.5291°W)
Time: 06:01:55
(UTC-05:00)

N. Korean satellite - Visible Passes

Search period start: 22 November 2017 00:00
Search period end: 02 December 2017 00:00
Orbit: 460 x 514 km, 97.2° (Epoch: 21 November)

Date Brightness Start Highest point End Pass type
(mag) Time Alt. Az. Time Alt. Az. Time Alt. Az.
22 Nov 8.8 18:46:36 10° SSW 18:49:35 26° W 18:52:38 10° NW visible
23 Nov 9.2 06:15:35 10° NE 06:18:49 27° E 06:22:02 10° SSE visible
23 Nov 7.1 18:22:35 10° S 18:26:02 57° W 18:29:34 10° NNW visible
24 Nov 10.0 05:53:12 10° ENE 05:55:12 14° E 05:57:12 10° SE visible
24 Nov 6.4 17:59:05 10° SSE 18:02:33 62° ENE 18:06:07 10° N visible
25 Nov 7.4 17:36:05 10° SE 17:39:09 29° ENE 17:42:18 10° NNE visible
25 Nov 9.9 19:10:56 10° WSW 19:12:44 13° W 19:14:33 10° WNW visible
26 Nov 8.2 17:13:43 10° ESE 17:15:50 15° ENE 17:17:59 10° NNE visible
26 Nov 8.7 18:46:04 10° SSW 18:49:06 27° W 18:52:11 10° NW visible
27 Nov 9.2 06:15:07 10° NE 06:18:21 27° E 06:21:33 10° SSE visible
27 Nov 7.1 18:22:03 10° S 18:25:31 58° W 18:29:05 10° NNW visible
28 Nov 10.0 05:52:43 10° ENE 05:54:43 14° E 05:56:41 10° SE visible
28 Nov 6.5 17:58:31 10° SSE 18:02:01 62° ENE 18:05:37 10° N visible
29 Nov 7.4 17:35:29 10° SE 17:38:36 29° ENE 17:41:47 10° NNE visible
29 Nov 9.8 19:10:18 10° SW 19:12:11 14° W 19:14:05 10° WNW visible
30 Nov 8.2 17:13:07 10° ESE 17:15:16 15° ENE 17:17:27 10° NNE visible
30 Nov 8.7 18:45:26 10° SSW 18:48:30 27° W 18:51:40 10° NW visible
01 Dec 9.2 06:14:34 10° NE 06:17:47 26° E 06:20:59 10° SSE visible
01 Dec 7.1 18:21:24 10° S 18:24:55 59° W 18:28:32 10° NNW visible
